Regional Weather Roundup
Issued by NWS Wakefield, VA

Home | Current Version | Previous Version | Text Only | Print | Product List | Glossary Off
Versions: 1 2 3 4 5 6 7 8 9 10 11 12 13 14 15 16 17 18 19 20 21 22 23 24 25 26 27 28 29 30 31 32 33 34 35 36 37 38 39 40 41 42 43 44 45 46 47 48 49 50

000
ASUS41 KAKQ 312213
RWRAKQ

REGIONAL WEATHER ROUNDUP
NATIONAL WEATHER SERVICE WAKEFIELD VA
600 PM EDT MON AUG 31 2015

Note: "fair" indicates few or no clouds below 12,000 feet with no
significant weather and/or obstructions to visibility. * = Denotes
station may not report precipitation (e.g., rain,snow,etc.),
thunder or fog.

VAZ042-051-052>054-056-312300-
NORTHERN VIRGINIA

CITY           SKY/WX    TMP DP  RH WIND       PRES   REMARKS
WASH NATIONAL  MOSUNNY   85  66  53 S10       30.04S
DULLES         MOSUNNY   87  65  47 SW7       30.04S
FORT BELVOIR   SUNNY     86  66  50 SE5       30.04S
QUANTICO       MOSUNNY   84  69  60 S6        30.05S
FREDERICKSBRG* SUNNY     89  65  44 S6        30.03S
STAFFORD*      SUNNY     86  60  40 CALM      30.08S
WARRENTON      SUNNY     89  64  43 CALM      30.04S
CULPEPER*      SUNNY     85  66  52 CALM      30.05S
MANASSAS*      SUNNY     84  66  54 SE5       30.04F
LEESBURG*      SUNNY     88  72  58 S9        30.05S
WINCHESTER     CLOUDY    86  61  42 SE6       30.05S
FRONT ROYAL*   FAIR      84  68  58 E5        30.04S
LURAY*         FAIR      88  61  40 E3        30.05S
$$

VAZ048-049-060>072-079>083-312300-
CENTRAL AND SOUTH CENTRAL VIRGINIA

CITY           SKY/WX    TMP DP  RH WIND       PRES   REMARKS
RICHMOND       PTSUNNY   80  70  71 S10       30.07S
CHESTERFIELD*  FAIR      81  63  54 S8G17     30.08F
PETERSBURG*    LGT RAIN  76  76  97 CALM      30.09S
HANOVER        MOSUNNY   80  70  71 SE7       30.08R
TAPPAHANNOCK*  MOSUNNY   84  66  54 S7        30.07S
QUINTON*       FAIR      80  71  75 SE7       30.07S
CHARLOTTSVILLE SUNNY     87  57  35 S3        30.05F
GORDONSVILLE*  FAIR      86  63  45 CALM      30.04F
ORANGE*        SUNNY     88  61  40 SE3       30.06S
LOUISA*        SUNNY     88  63  42 SE3       30.04F
BUMPASS*       FAIR      85  64  48 CALM      30.05S
FARMVILLE*     MOSUNNY   84  67  54 SE5       30.04F
CREWE*         FAIR     N/A N/A N/A SE6       30.06F
FORT PICKETT*  FAIR      76  71  83 SE9G16    30.08S
CHASE CITY*    FAIR      83  71  65 SE5       30.07S
CLARKSVILLE*   FAIR      79  68  69 E6        30.07S
SOUTH HILL*    CLOUDY    74  71  89 CALM      30.14S
LAWRENCEVILLE* CLOUDY    73  72  94 CALM      30.08S
EMPORIA*       CLOUDY    73  72  94 E8        30.09F
$$

VAZ088>098-312300-
SOUTHEAST VIRGINIA

CITY           SKY/WX    TMP DP  RH WIND       PRES   REMARKS
NORFOLK        CLOUDY    77  66  68 S8        30.09F
VIRGINIA BEACH CLOUDY    78  68  71 S3        30.08F
NORFOLK NAVAL  PTSUNNY   77  66  68 S5        30.10F
WEST POINT*    MOSUNNY   83  68  59 S8        30.09S
SALUDA*        MOCLDY    80  72  74 S7        30.07S
NEWPORT NEWS   CLOUDY    77  67  71 S8        30.09S
LANGLEY AFB    CLOUDY    77  67  73 S6        30.08F
FORT EUSTIS    CLOUDY    76  76 100 S7        30.07S
WILLIAMSBURG*  PTSUNNY   77  73  88 S7        30.10S
HR EXEC AP*      N/A     75  66  73 SE5       30.11F
FRANKLIN*      DRIZZLE   72  70  95 CALM      30.09F
WAKEFIELD      CLOUDY    76  71  85 CALM      30.09S
$$

VAZ020-022-025-037-045-312300-
WEST CENTRAL AND SOUTHWEST VIRGINIA

CITY           SKY/WX    TMP DP  RH WIND       PRES   REMARKS
STAUNTON*      CLOUDY    86  60  41 CALM      30.10R
WAYNESBORO*    MOCLDY    85  59  41 SE3       30.10S
HOT SPRINGS VA CLOUDY    71  62  71 CALM      30.22S
LYNCHBURG      SUNNY     83  64  52 E6        30.08F
DANVILLE       PTSUNNY   82  68  62 VRB3      30.07S
SOUTH BOSTON*  FAIR      82  68  63 E7        30.06S
MARTINSVILLE   SUNNY     85  66  53 CALM      30.10S
ROANOKE        PTSUNNY   83  61  47 E8        30.10R
BLACKSBURG     CLOUDY    79  64  58 NE6       30.16S
DUBLIN*        CLOUDY    82  59  45 CALM      30.15S
MARION*        MOSUNNY   79  60  52 NW5       30.18S
HILLSVILLE*    MOSUNNY   79  59  50 N6        30.16S
RICHLANDS*     FAIR      79  20  10 CALM      30.17S
WISE*          SUNNY     79  57  47 N3        30.19R
ABINGDON*      SUNNY     82  57  42 CALM      30.14S
$$

MDZ021>025-VAZ099-100-312300-
SOUTHERN MARYLAND AND THE DELMARVA PENINSULA

CITY           SKY/WX    TMP DP  RH WIND       PRES   REMARKS
PATUXENT RIVER MOSUNNY   83  66  56 S8        30.04F
BAY BRIDGE APT   N/A     82  63  51 S5        30.04S
LEONARDTOWN    NOT AVBL
DOVER          MOSUNNY   85  66  52 SW10      30.02S
GEORGETOWN     MOSUNNY   85  64  49 SW9       30.05S
EASTON         MOSUNNY   84  64  51 W6        30.08S
CAMBRIDGE      SUNNY     84  66  54 SW6       30.04S
SALISBURY      SUNNY     83  66  56 SW10      30.05S
OCEAN CITY     MOSUNNY   83  68  60 SW13      30.05S
WALLOPS ISLAND PTSUNNY   82  70  66 SW6       30.08S
ACCOMACK*      CLOUDY    77  61  57 SW9       30.08S
$$

NCZ012>017-030>032-312300-
NORTH CENTRAL AND EASTERN NORTH CAROLINA

CITY           SKY/WX    TMP DP  RH WIND       PRES   REMARKS
ROANOKE RAPIDS HVY RAIN  72  72 100 NE3       30.08S
RALEIGH        PTSUNNY   77  70  79 CALM      30.07F
ELIZABETH CITY CLOUDY    73  71  93 SE6       30.08F
AHOSKIE*       LGT RAIN  72  70  93 CALM      30.08F
EDENTON*       CLOUDY    75  71  88 SE7       30.08S
CURRITUCK*     DRIZZLE   72  70  92 CALM      30.09F
KILL DEVIL HLS DRIZZLE   75  70  85 SE6       30.08F
MANTEO         DRIZZLE   73  72  95 S8        30.09F
CAPE HATTERAS  CLOUDY    77  72  84 S8        30.08F
TARBORO*       CLOUDY    76  72  85 E3        30.07F
GOLDSBORO      PTSUNNY   81  73  78 E6        30.03F
WASHINGTON     CLOUDY    77  73  86 E6        30.06F
GREENVILLE     CLOUDY    79  73  83 E6        30.07F
NEW BERN       CLOUDY    79  73  82 SE3       30.06S
WILMINGTON     HVY RAIN  76  75  97 NE8       30.03S FOG
$$

VAZ048-312300-
ELSEWHERE

CITY           SKY/WX    TMP DP  RH WIND       PRES   REMARKS
HARRISBURG PA  PTSUNNY   86  71  60 SW5       30.00S
BALTIMORE      MOSUNNY   87  63  44 SW6       30.02S
ANNAPOLIS      SUNNY     85  65  51 SW7       30.03S
ANDREWS AFB    SUNNY     87  60  40 SW6       30.04S
PHILADELPHIA   PTSUNNY   88  69  53 SW14      30.00S
HENDERSON NC   PTSUNNY   76  67  73 SE3       30.08F
GREENSBORO     MOSUNNY   80  67  64 E6        30.07S
ROCKY MOUNT    CLOUDY    78  72  81 NE5       30.06F
$$

VAZ100-312300-
MARINE

STATION/POSITION TIME  TEMP    WIND        PRES    WAVE   SWELL
                       AIR SEA DIR/SP/G            HT/PER HT/PER
                 (UTC) (F)     (DEG/KT/KT) (MB)    (FT/S) (FT/S)
BRANDYWINE LGT   2100   81 77  260/ 16/ 17 1017.3S
CAPE MAY NJ      2100   80 80  260/ 11/ 12 1016.8F
LEWES DE         2100   85 75  230/  2/  9 1017.1S
15NM E FENWICK I 2150   79 77  210/ 14/ 16 1017.5F   2/ 9   2/ 9
OCEAN-CITY-INLET 2100   84 78  240/  9/ 13 1016.8F
WACHAPREAGUE VA  2100   81 81  200/  9/ 12 1018.7F
THOMAS POINT MD  2100   80 79  180/ 10/ 11 1017.6
GOOSES REEF MD   2200   81 80  170/ 10/ 12 1018.2F
COVE POINT MD    2100   80     170/  7/  8 1018.2F
SOLOMONS ISLAND  2100      80                N/A
BISHOPS HEAD MD  2100   80 80  180/ 10/ 12 1017.2F
PINEY POINT MD   2105          160/  2/  4   N/A
POTOMAC MD       2200   81 80  170/ 10/ 12 1016.6F   1
CAMBRIDGE MD     2100   83 80  220/  6/ 10 1016.6F
LEWISETTA VA     2100   83 80  240/  5/  7 1017.4F
RAPPAHANNOCK LGT 2100          190/ 11/ 13 1019.2F
STINGRAY PT      2100   80 80  180/ 10/ 12 1019.0S   1
YORK RVR RNG VA  2100   78     200/ 14/ 15 1018.1F
YORKTOWN VA      2100   77 80  200/  6/ 11 1018.4F
JAMESTOWN VA     2200   75 81  160/  4/  6   N/A
DOMINION TERM VA 2100   76     180/  6/  8 1019.0F
KIPTOPEKE VA     2100      79  200/  7/  9   N/A
CHES BAY BRIDGE  2100   77 79  170/  9/ 10 1018.8F
CAPE HENRY VA    2100   76     180/  4/  5   N/A
CHESAPEAKE LGHT  2100   76     190/  8/ 10 1019.8F
WILLOUBY STN VA  2100   77     190/ 11/ 13 1020.0F
CAPE HENRY BUOY  2128      78                N/A     2/ 9
1ST LANDING BUOY 2200      79              1018.7F   1/ 6
CAPE CHARLES BUO 2126      79                N/A     2/ 9   2/ 9
OFFSHORE WE BUOY 2111      79                N/A     3/ 9   3/ 9
64NM E OF VA BCH 2150   76 78  200/  6/  6 1018.9F   3/ 9   3/ 9
DUCK PIER NC     2100   74 79  150/  7/  9 1018.4F
44100 DUCK FRF   2124      78                N/A     2/10   2/11
44056 DUCK FRF   2111      78                N/A     2/ 9
OREGON INLET NC  2100   75 80  120/  7/ 10 1019.2F
HATTERAS NC      2100   77 80  140/  8/ 12 1018.3F
DIAMOND SHLS NC  2150   79 84  140/  8/ 10 1018.8F   4/ 9   3/ 9



USA.gov is the U.S. government's official web portal to all federal, state and local government web resources and services.